This is the latest recevied weather packets stored in our database for station/object SV6LWW-11. If no packets are shown the sender has not sent any weather packets the latest 10 day(s).
| Time | Temp. | Humidity | Pressure | Rain* | Wind** | Luminosity | Snow |
|---|---|---|---|---|---|---|---|
| 1777299243 | 20° C | 69% | 1023.3 hPa | - | - | - | - |
| 1777298343 | 20° C | 69% | 1023.4 hPa | - | - | - | - |
| 1777297443 | 20° C | 69% | 1023.5 hPa | - | - | - | - |
| 1777296542 | 20° C | 70% | 1023.6 hPa | - | - | - | - |
| 1777295642 | 20° C | 71% | 1023.8 hPa | - | - | - | - |
| 1777294742 | 20° C | 72% | 1024 hPa | - | - | - | - |
| 1777293842 | 20° C | 74% | 1024.2 hPa | - | - | - | - |
| 1777292942 | 21.11° C | 72% | 1024.4 hPa | - | - | - | - |
| 1777292042 | 20° C | 72% | 1024.5 hPa | - | - | - | - |
| 1777291142 | 20° C | 65% | 1024.7 hPa | - | - | - | - |
| 1777290241 | 20° C | 62% | 1024.8 hPa | - | - | - | - |
| 1777289341 | 20° C | 63% | 1024.8 hPa | - | - | - | - |
| 1777288441 | 20° C | 63% | 1024.9 hPa | - | - | - | - |
| 1777287541 | 20° C | 63% | 1024.9 hPa | - | - | - | - |
| 1777286641 | 20° C | 62% | 1025.1 hPa | - | - | - | - |
| 1777285740 | 20° C | 63% | 1025.3 hPa | - | - | - | - |
| 1777284843 | 20° C | 63% | 1025.4 hPa | - | - | - | - |
| 1777283943 | 20° C | 64% | 1025.6 hPa | - | - | - | - |
| 1777283043 | 20° C | 64% | 1025.7 hPa | - | - | - | - |
| 1777282143 | 20° C | 64% | 1025.9 hPa | - | - | - | - |
| 1777281243 | 20° C | 64% | 1026.1 hPa | - | - | - | - |
| 1777280343 | 20° C | 64% | 1026.3 hPa | - | - | - | - |
| 1777279443 | 20° C | 64% | 1026.5 hPa | - | - | - | - |
| 1777278543 | 20° C | 63% | 1026.5 hPa | - | - | - | - |
| 1777277642 | 20° C | 64% | 1026.6 hPa | - | - | - | - |
* Rain since midnight (hover to see other rain measurements)
** Current wind speed in m/s (hover to see current wind gust speed)